Location: Kaarina
(60.4167°N, 22.4167°E)
Time: 18:16:45
(UTC+03:00)

Genesis I - Pass Details

Date: 24 August 2019
Orbit: 485 x 539 km, 64.5° (Epoch: 23 September)

Event Time Altitude Azimuth Distance (km) Brightness Sun altitude
Rises 23:13:29 0° 291° (WNW) 2,698 7.8 -13.4°
Reaches altitude 10° 23:15:44 10° 296° (WNW) 1,801 6.9 -13.6°
Maximum altitude 23:19:43 53° 14° (NNE) 662 4.0 -13.9°
Drops below altitude 10° 23:23:37 10° 92° (E) 1,773 5.6 -14.1°
Enters shadow 23:23:37 10° 92° (E) 1,777 5.6 -14.1°
